Time,TemperatureF,DewpointF,PressureIn,WindDirection,WindDirectionDegrees,WindSpeedMPH,WindSpeedGustMPH,Humidity,HourlyPrecipIn,Conditions,Clouds,dailyrainin,SoftwareType,DateUTC
2013-04-23 00:02:00,59.7,41.8,29.97,East,101,3.9,4.7,51,0.00,,FEW075,0.00,VWS V14.01,2013-04-23 05:02:00,
2013-04-23 00:07:00,59.9,42.0,29.97,East,89,7.2,7.6,51,0.00,,FEW075,0.00,VWS V14.01,2013-04-23 05:07:00,
2013-04-23 00:12:00,60.1,42.8,29.97,East,85,5.0,7.6,53,0.00,,FEW075,0.00,VWS V14.01,2013-04-23 05:12:00,
2013-04-23 00:17:00,60.1,42.8,29.97,ESE,117,3.3,5.2,53,0.00,,FEW075,0.00,VWS V14.01,2013-04-23 05:17:00,
2013-04-23 00:22:00,60.1,42.8,29.97,ESE,117,5.0,7.0,53,0.00,,BKN075,0.00,VWS V14.01,2013-04-23 05:22:00,
2013-04-23 00:27:00,60.1,42.8,29.97,ESE,106,3.9,8.1,53,0.00,,BKN075,0.00,VWS V14.01,2013-04-23 05:27:00,
2013-04-23 00:32:00,60.3,43.6,29.97,ESE,106,6.7,8.1,54,0.00,,BKN075,0.00,VWS V14.01,2013-04-23 05:32:00,
2013-04-23 00:37:00,60.4,43.8,29.97,ESE,105,7.2,8.1,54,0.00,,BKN075,0.00,VWS V14.01,2013-04-23 05:37:00,
2013-04-23 00:42:00,60.3,43.6,29.97,ESE,110,6.7,7.0,54,0.00,,OVC075,0.00,VWS V14.01,2013-04-23 05:42:00,
2013-04-23 00:47:00,60.3,43.6,29.97,ESE,111,4.4,7.6,54,0.00,,OVC075,0.00,VWS V14.01,2013-04-23 05:47:00,
2013-04-23 00:52:00,60.1,43.5,29.97,ESE,102,5.0,8.1,54,0.00,,OVC075,0.00,VWS V14.01,2013-04-23 05:52:00,
2013-04-23 00:57:00,60.1,43.5,29.97,East,86,7.8,8.1,54,0.00,,OVC075,0.00,VWS V14.01,2013-04-23 05:57:00,
2013-04-23 01:03:00,60.1,44.1,29.97,ESE,108,6.1,8.1,55,0.00,,BKN075,0.00,VWS V14.01,2013-04-23 06:03:00,
2013-04-23 01:08:00,60.1,44.1,29.97,ESE,116,5.5,7.0,55,0.00,,BKN075,0.00,VWS V14.01,2013-04-23 06:08:00,
2013-04-23 01:13:00,60.1,44.1,29.94,ESE,116,5.0,7.0,55,0.00,,BKN075,0.00,VWS V14.01,2013-04-23 06:13:00,
2013-04-23 01:18:00,60.1,44.1,29.94,East,98,6.7,7.6,55,0.00,,BKN075,0.00,VWS V14.01,2013-04-23 06:18:00,
2013-04-23 01:23:00,60.3,44.2,29.94,ESE,114,3.9,4.7,55,0.00,,FEW075,0.00,VWS V14.01,2013-04-23 06:23:00,
2013-04-23 01:28:00,60.3,44.2,29.97,ESE,104,5.0,7.0,55,0.00,,FEW075,0.00,VWS V14.01,2013-04-23 06:28:00,
2013-04-23 01:33:00,60.4,44.4,29.97,ESE,119,6.7,7.6,55,0.00,,FEW075,0.00,VWS V14.01,2013-04-23 06:33:00,
2013-04-23 01:38:00,60.4,44.4,29.97,ESE,114,5.0,6.4,55,0.00,,FEW075,0.00,VWS V14.01,2013-04-23 06:38:00,
2013-04-23 01:43:00,60.6,44.6,29.97,SE,124,5.0,10.5,55,0.00,,SCT060,0.00,VWS V14.01,2013-04-23 06:43:00,
2013-04-23 01:48:00,60.8,44.1,29.97,ESE,103,6.7,7.0,54,0.00,,SCT060,0.00,VWS V14.01,2013-04-23 06:48:00,
2013-04-23 01:53:00,60.8,44.1,29.97,ESE,123,6.7,11.3,54,0.00,,SCT060,0.00,VWS V14.01,2013-04-23 06:53:00,
2013-04-23 01:58:00,61.0,44.3,29.94,SE,136,7.8,8.1,54,0.00,,FEW060,0.00,VWS V14.01,2013-04-23 06:58:00,
2013-04-23 02:03:00,61.0,44.3,29.94,ESE,111,5.0,8.1,54,0.00,,FEW060,0.00,VWS V14.01,2013-04-23 07:03:00,
2013-04-23 02:08:00,61.0,44.3,29.94,SE,134,5.0,9.9,54,0.00,,FEW060,0.00,VWS V14.01,2013-04-23 07:08:00,
2013-04-23 02:13:00,61.0,44.3,29.94,SE,131,4.4,8.1,54,0.00,,FEW060,0.00,VWS V14.01,2013-04-23 07:13:00,
2013-04-23 02:18:00,61.0,44.3,29.94,ESE,109,4.4,9.3,54,0.00,,FEW060,0.00,VWS V14.01,2013-04-23 07:18:00,
2013-04-23 02:23:00,61.0,44.3,29.94,ESE,122,6.7,7.6,54,0.00,,SCT120,0.00,VWS V14.01,2013-04-23 07:23:00,
2013-04-23 02:28:00,61.0,44.3,29.91,East,100,5.0,10.8,54,0.00,,SCT120,0.00,VWS V14.01,2013-04-23 07:28:00,
2013-04-23 02:33:00,61.0,44.3,29.91,SE,129,3.3,8.7,54,0.00,,SCT120,0.00,VWS V14.01,2013-04-23 07:33:00,
2013-04-23 02:38:00,61.0,44.3,29.91,ESE,119,5.0,10.8,54,0.00,,SCT120,0.00,VWS V14.01,2013-04-23 07:38:00,
2013-04-23 02:43:00,60.8,44.1,29.91,SE,139,7.8,8.1,54,0.00,,SCT120,0.00,VWS V14.01,2013-04-23 07:43:00,
2013-04-23 02:48:00,60.8,44.1,29.91,SE,139,7.2,10.5,54,0.00,,SCT120,0.00,VWS V14.01,2013-04-23 07:48:00,
2013-04-23 02:53:00,60.6,44.6,29.91,East,98,10.3,10.8,55,0.00,,SCT120,0.00,VWS V14.01,2013-04-23 07:53:00,
2013-04-23 02:58:00,60.6,44.6,29.88,ESE,108,7.2,11.3,55,0.00,,SCT120,0.00,VWS V14.01,2013-04-23 07:58:00,
2013-04-23 03:03:00,60.6,44.6,29.88,ESE,102,5.0,7.6,55,0.00,,FEW120,0.00,VWS V14.01,2013-04-23 08:03:00,
2013-04-23 03:08:00,60.4,44.4,29.88,East,81,4.4,8.1,55,0.00,,FEW120,0.00,VWS V14.01,2013-04-23 08:08:00,
2013-04-23 03:13:00,60.4,44.4,29.88,SE,132,4.4,9.9,55,0.00,,FEW120,0.00,VWS V14.01,2013-04-23 08:13:00,
2013-04-23 03:18:00,60.4,44.4,29.88,ESE,123,5.0,7.6,55,0.00,,BKN120,0.00,VWS V14.01,2013-04-23 08:18:00,
2013-04-23 03:23:00,60.6,44.6,29.88,ESE,107,4.4,8.1,55,0.00,,BKN120,0.00,VWS V14.01,2013-04-23 08:23:00,
2013-04-23 03:28:00,60.4,44.4,29.88,SE,126,6.7,8.1,55,0.00,,BKN120,0.00,VWS V14.01,2013-04-23 08:28:00,
2013-04-23 03:33:00,60.3,44.9,29.88,ESE,119,5.0,7.6,57,0.00,,BKN120,0.00,VWS V14.01,2013-04-23 08:33:00,
2013-04-23 03:38:00,60.3,44.9,29.88,ENE,71,4.4,7.0,57,0.00,,SCT120,0.00,VWS V14.01,2013-04-23 08:38:00,
2013-04-23 03:43:00,60.3,44.9,29.88,SE,130,3.3,5.2,57,0.00,,SCT120,0.00,VWS V14.01,2013-04-23 08:43:00,
2013-04-23 03:48:00,60.1,44.7,29.88,East,90,5.0,7.6,57,0.00,,SCT120,0.00,VWS V14.01,2013-04-23 08:48:00,
2013-04-23 03:53:00,60.1,44.7,29.88,ESE,112,3.9,7.6,57,0.00,,SCT120,0.00,VWS V14.01,2013-04-23 08:53:00,
2013-04-23 03:59:00,60.1,45.3,29.88,SE,135,7.8,8.1,58,0.00,,SCT120,0.00,VWS V14.01,2013-04-23 08:59:00,
2013-04-23 04:04:00,59.9,45.1,29.88,ESE,119,6.1,10.8,58,0.00,,FEW120,0.00,VWS V14.01,2013-04-23 09:04:00,
2013-04-23 04:09:00,59.9,45.1,29.88,South,177,7.2,7.6,58,0.00,,FEW120,0.00,VWS V14.01,2013-04-23 09:09:00,
2013-04-23 04:14:00,59.9,45.1,29.85,ESE,108,3.9,10.5,58,0.00,,FEW120,0.00,VWS V14.01,2013-04-23 09:14:00,
2013-04-23 04:19:00,60.1,45.3,29.85,ESE,109,4.4,8.1,58,0.00,,FEW120,0.00,VWS V14.01,2013-04-23 09:19:00,
2013-04-23 04:24:00,60.1,45.3,29.85,ESE,117,3.3,7.6,58,0.00,,FEW120,0.00,VWS V14.01,2013-04-23 09:24:00,
2013-04-23 04:29:00,60.3,45.5,29.85,SE,137,7.2,9.3,58,0.00,,FEW120,0.00,VWS V14.01,2013-04-23 09:29:00,
2013-04-23 04:34:00,60.3,45.5,29.85,SSE,166,6.1,7.6,58,0.00,,FEW120,0.00,VWS V14.01,2013-04-23 09:34:00,
2013-04-23 04:39:00,60.4,45.7,29.85,ESE,121,6.7,8.1,58,0.00,,BKN110,0.00,VWS V14.01,2013-04-23 09:39:00,
2013-04-23 04:44:00,60.4,45.7,29.85,ESE,106,3.3,8.1,58,0.00,,BKN110,0.00,VWS V14.01,2013-04-23 09:44:00,
2013-04-23 04:49:00,60.4,46.2,29.85,East,96,6.7,8.1,59,0.00,,BKN110,0.00,VWS V14.01,2013-04-23 09:49:00,
2013-04-23 04:54:00,60.4,46.2,29.85,ESE,116,9.4,9.9,59,0.00,,BKN110,0.00,VWS V14.01,2013-04-23 09:54:00,
2013-04-23 04:59:00,60.4,46.2,29.83,SE,130,4.4,10.5,59,0.00,,BKN110,0.00,VWS V14.01,2013-04-23 09:59:00,
2013-04-23 05:04:00,60.6,46.4,29.83,SSE,149,3.9,9.9,59,0.00,,BKN110,0.00,VWS V14.01,2013-04-23 10:04:00,
2013-04-23 05:09:00,60.6,46.4,29.83,WSW,248,8.9,9.3,59,0.00,,BKN110,0.00,VWS V14.01,2013-04-23 10:09:00,
2013-04-23 05:14:00,60.6,47.0,29.88,West,277,6.7,8.1,61,0.00,,BKN110,0.00,VWS V14.01,2013-04-23 10:14:00,
2013-04-23 05:19:00,60.4,46.8,29.88,SSW,213,3.9,4.7,61,0.00,,OVC120,0.00,VWS V14.01,2013-04-23 10:19:00,
2013-04-23 05:24:00,60.3,47.2,29.88,ESE,118,4.4,5.2,62,0.00,,OVC120,0.00,VWS V14.01,2013-04-23 10:24:00,
2013-04-23 05:29:00,60.3,47.8,29.88,SSE,166,2.8,5.2,63,0.01,,OVC120,0.01,VWS V14.01,2013-04-23 10:29:00,
2013-04-23 05:34:00,60.1,48.2,29.88,SE,144,7.8,8.1,65,0.01,,OVC120,0.01,VWS V14.01,2013-04-23 10:34:00,
2013-04-23 05:39:00,60.4,48.5,29.88,SSW,211,3.3,6.4,65,0.01,,OVC120,0.01,VWS V14.01,2013-04-23 10:39:00,
2013-04-23 05:44:00,60.8,48.3,29.85,SSE,163,5.0,8.7,63,0.01,,BKN100,0.01,VWS V14.01,2013-04-23 10:44:00,
2013-04-23 05:49:00,61.0,48.5,29.85,SE,145,5.0,8.1,63,0.01,,BKN100,0.01,VWS V14.01,2013-04-23 10:49:00,
2013-04-23 05:54:00,60.8,48.8,29.85,South,176,5.0,7.0,65,0.01,,BKN100,0.01,VWS V14.01,2013-04-23 10:54:00,
2013-04-23 06:00:00,60.4,49.0,29.85,SSE,149,7.2,7.6,66,0.01,,OVC110,0.01,VWS V14.01,2013-04-23 11:00:00,
2013-04-23 06:05:00,60.1,49.8,29.85,South,173,9.4,9.9,69,0.01,,OVC110,0.01,VWS V14.01,2013-04-23 11:05:00,
2013-04-23 06:10:00,60.1,49.8,29.85,SW,218,5.0,8.1,69,0.01,,OVC110,0.01,VWS V14.01,2013-04-23 11:10:00,
2013-04-23 06:15:00,60.3,49.4,29.85,South,189,7.2,10.5,67,0.01,,OVC110,0.01,VWS V14.01,2013-04-23 11:15:00,
2013-04-23 06:20:00,61.0,48.5,29.85,SSE,160,10.3,13.1,63,0.01,,OVC090,0.01,VWS V14.01,2013-04-23 11:20:00,
2013-04-23 06:25:00,61.7,48.0,29.85,SE,137,10.3,16.6,61,0.01,,OVC090,0.01,VWS V14.01,2013-04-23 11:25:00,
2013-04-23 06:30:00,62.1,47.8,29.85,SSE,166,10.0,16.6,59,0.00,,OVC090,0.01,VWS V14.01,2013-04-23 11:30:00,
2013-04-23 06:35:00,62.2,47.9,29.85,South,185,15.8,16.6,59,0.00,,OVC090,0.01,VWS V14.01,2013-04-23 11:35:00,
2013-04-23 06:40:00,62.2,48.5,29.85,SSW,206,13.6,14.2,61,0.00,,OVC090,0.01,VWS V14.01,2013-04-23 11:40:00,
2013-04-23 06:45:00,61.9,48.2,29.85,NW,304,10.3,14.2,61,0.00,,OVC090,0.01,VWS V14.01,2013-04-23 11:45:00,
2013-04-23 06:50:00,61.3,48.8,29.85,WNW,286,7.2,11.3,63,0.00,,OVC090,0.01,VWS V14.01,2013-04-23 11:50:00,
2013-04-23 06:55:00,60.8,48.8,29.85,WNW,297,7.2,11.3,65,0.00,,OVC090,0.01,VWS V14.01,2013-04-23 11:55:00,
2013-04-23 07:00:00,60.3,48.9,29.88,WNW,299,13.0,14.8,66,0.00,,OVC070,0.01,VWS V14.01,2013-04-23 12:00:00,
2013-04-23 07:05:00,59.7,49.4,29.88,WNW,288,7.2,13.1,69,0.00,,OVC070,0.01,VWS V14.01,2013-04-23 12:05:00,
2013-04-23 07:10:00,59.4,49.1,29.88,West,266,6.7,8.1,69,0.00,,OVC070,0.01,VWS V14.01,2013-04-23 12:10:00,
2013-04-23 07:15:00,59.0,49.2,29.91,West,273,0.0,7.6,70,0.00,,OVC070,0.01,VWS V14.01,2013-04-23 12:15:00,
2013-04-23 07:20:00,58.5,50.2,29.91,WNW,285,6.7,9.9,74,0.00,,OVC045,0.01,VWS V14.01,2013-04-23 12:20:00,
2013-04-23 07:25:00,58.1,50.3,29.91,NNW,327,3.9,8.1,75,0.00,,OVC045,0.01,VWS V14.01,2013-04-23 12:25:00,
2013-04-23 07:30:00,57.7,50.4,29.91,North,357,0.0,7.6,77,0.00,,OVC045,0.01,VWS V14.01,2013-04-23 12:30:00,
2013-04-23 07:35:00,57.6,50.3,29.91,WNW,294,7.8,8.1,77,0.00,,OVC045,0.01,VWS V14.01,2013-04-23 12:35:00,
2013-04-23 07:40:00,57.2,50.4,29.91,WNW,288,5.0,7.0,78,0.00,,OVC045,0.01,VWS V14.01,2013-04-23 12:40:00,
2013-04-23 07:45:00,57.0,51.1,29.91,NNE,14,5.0,8.1,81,0.00,,OVC045,0.01,VWS V14.01,2013-04-23 12:45:00,
2013-04-23 07:50:00,56.8,51.4,29.91,North,1,3.3,6.4,82,0.00,,OVC045,0.01,VWS V14.01,2013-04-23 12:50:00,
2013-04-23 07:55:00,56.7,51.6,29.91,NNE,19,9.4,9.9,83,0.00,,OVC045,0.01,VWS V14.01,2013-04-23 12:55:00,
2013-04-23 08:00:00,56.7,51.6,29.91,North,0,7.8,8.1,83,0.00,,OVC045,0.01,VWS V14.01,2013-04-23 13:00:00,
2013-04-23 08:05:00,56.5,51.9,29.91,NNE,33,0.0,4.1,84,0.00,,OVC045,0.01,VWS V14.01,2013-04-23 13:05:00,
2013-04-23 08:10:00,56.5,52.3,29.91,NNE,29,6.1,9.3,86,0.00,,OVC045,0.01,VWS V14.01,2013-04-23 13:10:00,
2013-04-23 08:16:00,56.7,52.9,29.91,NE,41,6.1,7.0,87,0.00,,OVC045,0.01,VWS V14.01,2013-04-23 13:16:00,
2013-04-23 08:21:00,56.8,53.9,29.91,NE,35,3.3,7.6,90,0.00,,OVC055,0.01,VWS V14.01,2013-04-23 13:21:00,
2013-04-23 08:26:00,56.8,54.3,29.91,NE,45,5.5,8.1,91,0.00,,OVC055,0.01,VWS V14.01,2013-04-23 13:26:00,
2013-04-23 08:31:00,57.2,54.6,29.91,NNE,17,6.7,7.6,91,0.00,,OVC055,0.01,VWS V14.01,2013-04-23 13:31:00,
2013-04-23 08:36:00,57.2,54.6,29.91,NE,44,5.0,7.6,91,0.00,,OVC055,0.01,VWS V14.01,2013-04-23 13:36:00,
2013-04-23 08:41:00,57.6,55.4,29.91,NNE,21,5.0,6.4,92,0.00,,BKN090,0.01,VWS V14.01,2013-04-23 13:41:00,
2013-04-23 08:46:00,57.9,55.7,29.91,NE,45,8.9,9.3,92,0.00,,BKN090,0.01,VWS V14.01,2013-04-23 13:46:00,
2013-04-23 08:51:00,57.9,55.7,29.91,NE,51,4.4,10.5,92,0.00,,BKN090,0.01,VWS V14.01,2013-04-23 13:51:00,
2013-04-23 08:56:00,57.7,55.6,29.91,NE,36,4.4,7.6,92,0.00,,BKN090,0.01,VWS V14.01,2013-04-23 13:56:00,
2013-04-23 09:01:00,57.7,55.6,29.91,NNE,21,6.1,7.0,92,0.00,,OVC080,0.01,VWS V14.01,2013-04-23 14:01:00,
2013-04-23 09:06:00,57.7,55.2,29.91,NNE,23,5.0,6.4,91,0.00,,OVC080,0.01,VWS V14.01,2013-04-23 14:06:00,
2013-04-23 09:11:00,57.6,55.0,29.91,NE,47,0.0,5.2,91,0.00,,OVC080,0.01,VWS V14.01,2013-04-23 14:11:00,
2013-04-23 09:16:00,57.7,55.2,29.91,NE,35,4.4,4.7,91,0.00,,OVC080,0.01,VWS V14.01,2013-04-23 14:16:00,
2013-04-23 09:21:00,57.9,55.7,29.91,NNE,28,5.0,8.1,92,0.00,,OVC050,0.01,VWS V14.01,2013-04-23 14:21:00,
2013-04-23 09:26:00,57.9,55.7,29.91,NE,50,5.0,7.0,92,0.00,,OVC050,0.01,VWS V14.01,2013-04-23 14:26:00,
2013-04-23 09:31:00,57.9,55.7,29.91,NE,45,5.0,7.0,92,0.00,,OVC050,0.01,VWS V14.01,2013-04-23 14:31:00,
2013-04-23 09:36:00,58.1,55.9,29.91,NE,56,5.0,6.4,92,0.00,,OVC050,0.01,VWS V14.01,2013-04-23 14:36:00,
2013-04-23 09:41:00,58.1,55.9,29.91,East,79,3.3,7.0,92,0.00,,OVC050,0.01,VWS V14.01,2013-04-23 14:41:00,
2013-04-23 09:46:00,58.3,56.1,29.91,NE,38,3.3,5.2,92,0.00,,OVC050,0.01,VWS V14.01,2013-04-23 14:46:00,
2013-04-23 09:51:00,58.3,56.1,29.91,NE,55,6.1,6.4,92,0.00,,OVC050,0.01,VWS V14.01,2013-04-23 14:51:00,
2013-04-23 09:56:00,58.5,56.3,29.91,North,0,3.9,5.2,92,0.00,,OVC050,0.01,VWS V14.01,2013-04-23 14:56:00,
2013-04-23 10:01:00,58.5,56.3,29.91,NNE,21,5.0,7.6,92,0.00,,OVC042,0.01,VWS V14.01,2013-04-23 15:01:00,
2013-04-23 10:06:00,58.5,56.3,29.91,NNE,29,3.9,5.2,92,0.00,,OVC042,0.01,VWS V14.01,2013-04-23 15:06:00,
2013-04-23 10:11:00,58.5,56.3,29.94,NNE,32,3.9,6.4,92,0.00,,OVC042,0.01,VWS V14.01,2013-04-23 15:11:00,
2013-04-23 10:16:00,58.5,55.9,29.94,NE,45,4.4,4.7,91,0.00,,OVC042,0.01,VWS V14.01,2013-04-23 15:16:00,
2013-04-23 10:21:00,58.6,56.5,29.94,NE,55,3.3,5.8,92,0.00,,OVC040,0.01,VWS V14.01,2013-04-23 15:21:00,
2013-04-23 10:26:00,58.6,56.5,29.91,NNE,19,4.4,7.0,92,0.00,,OVC040,0.01,VWS V14.01,2013-04-23 15:26:00,
2013-04-23 10:31:00,59.0,56.4,29.91,NE,55,2.8,3.5,91,0.00,,OVC040,0.01,VWS V14.01,2013-04-23 15:31:00,
2013-04-23 10:36:00,59.2,56.6,29.91,ENE,73,0.0,6.4,91,0.00,,OVC040,0.01,VWS V14.01,2013-04-23 15:36:00,
2013-04-23 10:41:00,59.4,56.8,29.91,NNE,31,0.0,5.2,91,0.00,,OVC038,0.01,VWS V14.01,2013-04-23 15:41:00,
2013-04-23 10:46:00,59.5,56.9,29.91,NE,37,2.8,4.7,91,0.00,,OVC038,0.01,VWS V14.01,2013-04-23 15:46:00,
2013-04-23 10:51:00,59.7,57.1,29.91,NNW,346,4.4,4.7,91,0.00,,OVC038,0.01,VWS V14.01,2013-04-23 15:51:00,
2013-04-23 10:56:00,59.9,57.3,29.94,NNE,21,3.9,4.7,91,0.00,,OVC038,0.01,VWS V14.01,2013-04-23 15:56:00,
2013-04-23 11:01:00,59.7,56.7,29.94,NNW,345,0.0,4.7,90,0.00,,OVC036,0.01,VWS V14.01,2013-04-23 16:01:00,
2013-04-23 11:06:00,59.5,56.5,29.94,NNW,341,3.9,7.0,90,0.00,,OVC036,0.01,VWS V14.01,2013-04-23 16:06:00,
2013-04-23 11:11:00,59.4,56.0,29.94,NNE,27,4.4,5.2,88,0.00,,OVC036,0.01,VWS V14.01,2013-04-23 16:11:00,
2013-04-23 11:16:00,59.2,55.8,29.94,NNE,16,3.9,7.0,88,0.00,,OVC036,0.01,VWS V14.01,2013-04-23 16:16:00,
2013-04-23 11:21:00,59.2,55.8,29.94,North,353,4.4,6.4,88,0.00,,OVC034,0.01,VWS V14.01,2013-04-23 16:21:00,
2013-04-23 11:26:00,59.2,56.2,29.94,North,8,6.7,7.6,90,0.00,,OVC034,0.01,VWS V14.01,2013-04-23 16:26:00,
2013-04-23 11:31:00,59.2,56.2,29.94,NNE,16,4.4,5.2,90,0.00,,OVC034,0.01,VWS V14.01,2013-04-23 16:31:00,
2013-04-23 11:36:00,59.0,56.0,29.94,NNW,338,5.0,7.0,90,0.00,,OVC034,0.01,VWS V14.01,2013-04-23 16:36:00,
2013-04-23 11:41:00,58.8,55.8,29.94,NW,326,6.7,7.0,90,0.00,,OVC034,0.01,VWS V14.01,2013-04-23 16:41:00,
2013-04-23 11:46:00,58.6,56.0,29.94,North,0,6.1,6.4,91,0.00,,OVC034,0.01,VWS V14.01,2013-04-23 16:46:00,
2013-04-23 11:52:00,58.5,55.9,29.94,NNW,342,3.9,7.6,91,0.00,,OVC034,0.01,VWS V14.01,2013-04-23 16:52:00,
2013-04-23 11:57:00,58.5,55.9,29.94,North,353,5.0,6.4,91,0.00,,OVC034,0.01,VWS V14.01,2013-04-23 16:57:00,
2013-04-23 12:02:00,58.3,55.7,29.94,WNW,283,5.0,6.4,91,0.00,,OVC032,0.01,VWS V14.01,2013-04-23 17:02:00,
2013-04-23 12:07:00,58.3,56.1,29.94,NNW,337,0.0,10.5,92,0.00,,OVC032,0.01,VWS V14.01,2013-04-23 17:07:00,
2013-04-23 12:12:00,58.1,55.9,29.94,NNW,340,0.0,4.1,92,0.00,,OVC032,0.01,VWS V14.01,2013-04-23 17:12:00,
2013-04-23 12:17:00,57.9,55.7,29.94,North,2,2.8,5.2,92,0.00,,OVC032,0.01,VWS V14.01,2013-04-23 17:17:00,
2013-04-23 12:22:00,57.9,55.7,29.94,NNW,341,2.8,5.2,92,0.00,,OVC030,0.01,VWS V14.01,2013-04-23 17:22:00,
2013-04-23 12:27:00,57.7,55.6,29.94,West,275,5.0,8.1,92,0.00,,OVC030,0.01,VWS V14.01,2013-04-23 17:27:00,
2013-04-23 12:32:00,57.6,55.4,29.94,NNW,330,0.0,6.4,92,0.00,,OVC030,0.01,VWS V14.01,2013-04-23 17:32:00,
2013-04-23 12:37:00,57.4,55.6,29.94,WNW,297,6.7,8.1,94,0.00,,OVC030,0.01,VWS V14.01,2013-04-23 17:37:00,
2013-04-23 12:42:00,57.2,55.4,29.94,North,3,4.4,11.3,94,0.00,,OVC030,0.01,VWS V14.01,2013-04-23 17:42:00,
2013-04-23 12:47:00,56.8,55.0,29.94,WNW,292,6.1,9.9,94,0.00,,OVC030,0.01,VWS V14.01,2013-04-23 17:47:00,
2013-04-23 12:52:00,55.9,54.2,29.94,NNW,341,7.2,8.1,94,0.00,,OVC030,0.01,VWS V14.01,2013-04-23 17:52:00,
2013-04-23 12:57:00,54.9,53.1,29.94,NW,316,3.3,12.5,94,0.00,,OVC030,0.01,VWS V14.01,2013-04-23 17:57:00,
2013-04-23 13:02:00,53.8,52.0,29.94,West,271,7.2,10.5,94,0.00,,OVC030,0.01,VWS V14.01,2013-04-23 18:02:00,
2013-04-23 13:07:00,52.7,51.3,29.94,WNW,302,10.8,12.5,95,0.00,,OVC030,0.01,VWS V14.01,2013-04-23 18:07:00,
2013-04-23 13:12:00,51.8,50.4,29.94,North,0,6.7,11.3,95,0.00,,OVC030,0.01,VWS V14.01,2013-04-23 18:12:00,
2013-04-23 13:17:00,51.1,50.1,29.94,NNW,334,3.9,9.9,96,0.00,,OVC030,0.01,VWS V14.01,2013-04-23 18:17:00,
2013-04-23 13:22:00,50.2,49.2,29.94,WNW,294,4.4,10.8,96,0.00,,OVC008,0.01,VWS V14.01,2013-04-23 18:22:00,
2013-04-23 13:27:00,49.5,48.8,29.94,North,0,3.9,10.5,98,0.00,,OVC008,0.01,VWS V14.01,2013-04-23 18:27:00,
2013-04-23 13:32:00,48.6,47.9,29.94,North,349,10.0,10.5,98,0.00,,OVC008,0.01,VWS V14.01,2013-04-23 18:32:00,
2013-04-23 13:37:00,48.0,47.8,29.94,NW,317,4.4,7.6,99,0.00,,OVC008,0.01,VWS V14.01,2013-04-23 18:37:00,
2013-04-23 13:43:00,47.7,47.4,29.94,WNW,302,4.4,10.8,99,0.00,,OVC004,0.01,VWS V14.01,2013-04-23 18:43:00,
2013-04-23 13:48:00,47.1,46.9,29.94,North,353,3.9,10.8,99,0.00,,OVC004,0.01,VWS V14.01,2013-04-23 18:48:00,
2013-04-23 13:53:00,46.8,46.8,29.94,North,9,10.3,11.3,100,0.00,,OVC004,0.01,VWS V14.01,2013-04-23 18:53:00,
2013-04-23 13:58:00,46.4,46.4,29.94,NNW,335,10.3,10.8,100,0.00,,OVC004,0.01,VWS V14.01,2013-04-23 18:58:00,
2013-04-23 14:03:00,46.0,46.0,29.94,North,4,6.7,7.6,100,0.00,,OVC004,0.01,VWS V14.01,2013-04-23 19:03:00,
2013-04-23 14:08:00,45.9,45.9,29.94,WNW,299,7.2,7.6,100,0.00,,OVC004,0.01,VWS V14.01,2013-04-23 19:08:00,
2013-04-23 14:13:00,45.7,45.7,29.94,NNE,27,3.9,7.6,100,0.00,,OVC004,0.01,VWS V14.01,2013-04-23 19:13:00,
2013-04-23 14:18:00,45.5,45.5,29.94,NW,309,8.3,10.5,100,0.00,,OVC005,0.01,VWS V14.01,2013-04-23 19:18:00,
2013-04-23 14:23:00,45.3,45.3,29.94,NW,310,6.1,6.4,100,0.00,,OVC005,0.01,VWS V14.01,2013-04-23 19:23:00,
2013-04-23 14:28:00,44.8,44.8,29.94,West,267,7.2,9.3,100,0.00,,OVC005,0.01,VWS V14.01,2013-04-23 19:28:00,
2013-04-23 14:33:00,44.2,44.2,29.94,WNW,300,11.9,12.5,100,0.00,,OVC005,0.01,VWS V14.01,2013-04-23 19:33:00,
2013-04-23 14:38:00,43.9,43.9,29.94,NNW,339,6.7,7.0,100,0.00,,OVC005,0.01,VWS V14.01,2013-04-23 19:38:00,
2013-04-23 14:43:00,43.7,43.7,29.97,NW,319,4.4,7.0,100,0.00,,OVC005,0.01,VWS V14.01,2013-04-23 19:43:00,
2013-04-23 14:48:00,43.3,43.3,29.97,NNW,343,6.7,10.8,100,0.00,,OVC005,0.01,VWS V14.01,2013-04-23 19:48:00,
2013-04-23 14:53:00,43.0,43.0,29.97,WNW,283,7.2,8.1,100,0.00,,OVC005,0.01,VWS V14.01,2013-04-23 19:53:00,
2013-04-23 14:58:00,42.8,42.8,29.97,NW,312,7.2,11.3,100,0.00,,OVC006,0.01,VWS V14.01,2013-04-23 19:58:00,
2013-04-23 15:03:00,42.6,42.6,29.97,North,2,6.7,7.6,100,0.00,,OVC006,0.01,VWS V14.01,2013-04-23 20:03:00,
2013-04-23 15:08:00,42.8,42.8,29.97,North,357,2.8,8.1,100,0.00,,OVC006,0.01,VWS V14.01,2013-04-23 20:08:00,
2013-04-23 15:13:00,42.6,42.6,29.97,NNW,329,10.8,11.3,100,0.04,,OVC006,0.05,VWS V14.01,2013-04-23 20:13:00,
2013-04-23 15:18:00,42.1,42.1,29.97,North,0,7.8,14.2,100,0.04,,OVC006,0.05,VWS V14.01,2013-04-23 20:18:00,
2013-04-23 15:23:00,41.5,41.5,29.97,WNW,282,3.9,10.8,100,0.04,,OVC006,0.05,VWS V14.01,2013-04-23 20:23:00,
2013-04-23 15:28:00,41.5,41.5,29.97,NNE,23,7.2,10.8,100,0.04,,OVC006,0.05,VWS V14.01,2013-04-23 20:28:00,
2013-04-23 15:33:00,41.4,41.4,29.97,North,357,5.0,9.9,100,0.04,,OVC006,0.05,VWS V14.01,2013-04-23 20:33:00,
2013-04-23 15:38:00,41.2,41.2,29.97,NNW,341,6.1,9.3,100,0.04,,OVC006,0.05,VWS V14.01,2013-04-23 20:38:00,
2013-04-23 15:43:00,41.2,41.2,29.97,NNW,334,0.0,7.0,100,0.04,,OVC018,0.05,VWS V14.01,2013-04-23 20:43:00,
2013-04-23 15:48:00,41.2,41.2,29.97,North,353,4.4,9.9,100,0.04,,OVC018,0.05,VWS V14.01,2013-04-23 20:48:00,
2013-04-23 15:53:00,41.0,41.0,29.97,NW,305,5.0,8.1,100,0.04,,OVC018,0.05,VWS V14.01,2013-04-23 20:53:00,
2013-04-23 15:58:00,41.0,41.0,29.97,NNW,341,6.1,8.1,100,0.04,,OVC018,0.05,VWS V14.01,2013-04-23 20:58:00,
2013-04-23 16:03:00,41.0,41.0,29.97,NNW,328,6.7,11.3,100,0.04,,OVC005,0.05,VWS V14.01,2013-04-23 21:03:00,
2013-04-23 16:08:00,40.8,40.8,29.97,North,353,4.4,8.1,100,0.04,,OVC005,0.05,VWS V14.01,2013-04-23 21:08:00,
2013-04-23 16:14:00,40.6,40.6,29.97,West,277,3.3,10.8,100,0.00,,OVC005,0.05,VWS V14.01,2013-04-23 21:14:00,
2013-04-23 16:19:00,40.6,40.6,29.97,West,274,9.4,9.9,100,0.00,,OVC013,0.05,VWS V14.01,2013-04-23 21:19:00,
2013-04-23 16:24:00,40.5,40.5,29.97,North,10,3.9,10.8,100,0.00,,OVC013,0.05,VWS V14.01,2013-04-23 21:24:00,
2013-04-23 16:29:00,40.5,40.5,29.97,North,5,6.7,14.2,100,0.00,,OVC013,0.05,VWS V14.01,2013-04-23 21:29:00,
2013-04-23 16:34:00,40.3,40.3,29.97,NE,36,6.7,10.8,100,0.00,,OVC013,0.05,VWS V14.01,2013-04-23 21:34:00,
2013-04-23 16:39:00,39.9,39.9,29.97,WNW,301,6.7,11.3,100,0.00,,OVC013,0.05,VWS V14.01,2013-04-23 21:39:00,
2013-04-23 16:44:00,39.7,39.7,30.00,NNW,344,7.8,8.1,100,0.00,,OVC013,0.05,VWS V14.01,2013-04-23 21:44:00,
2013-04-23 16:49:00,39.7,39.7,30.00,NW,305,0.0,6.4,100,0.00,,OVC013,0.05,VWS V14.01,2013-04-23 21:49:00,
2013-04-23 16:54:00,39.7,39.7,30.00,West,269,3.3,6.4,100,0.00,,OVC013,0.05,VWS V14.01,2013-04-23 21:54:00,
2013-04-23 16:59:00,39.7,39.7,30.00,North,353,2.8,7.6,100,0.00,,OVC013,0.05,VWS V14.01,2013-04-23 21:59:00,
2013-04-23 17:04:00,39.4,39.4,30.00,NE,39,2.8,9.9,100,0.04,,OVC011,0.09,VWS V14.01,2013-04-23 22:04:00,
2013-04-23 17:09:00,39.2,39.2,30.00,WNW,291,4.4,12.5,100,0.04,,OVC011,0.09,VWS V14.01,2013-04-23 22:09:00,
2013-04-23 17:14:00,39.0,39.0,30.00,NW,309,5.0,9.9,100,0.04,,OVC011,0.09,VWS V14.01,2013-04-23 22:14:00,
2013-04-23 17:19:00,39.0,39.0,30.00,NNE,17,8.9,10.8,100,0.04,,OVC014,0.09,VWS V14.01,2013-04-23 22:19:00,
2013-04-23 17:24:00,39.0,39.0,30.00,North,1,7.8,11.3,100,0.04,,OVC014,0.09,VWS V14.01,2013-04-23 22:24:00,
2013-04-23 17:29:00,38.8,38.8,30.00,NNW,337,10.0,13.1,100,0.04,,OVC014,0.09,VWS V14.01,2013-04-23 22:29:00,
2013-04-23 17:34:00,38.8,38.8,30.00,North,0,13.6,14.2,100,0.04,,OVC014,0.09,VWS V14.01,2013-04-23 22:34:00,
2013-04-23 17:39:00,38.8,38.8,30.00,North,8,5.0,5.2,100,0.04,,OVC024,0.09,VWS V14.01,2013-04-23 22:39:00,
2013-04-23 17:44:00,38.8,38.8,30.00,North,353,3.3,10.5,100,0.04,,OVC024,0.09,VWS V14.01,2013-04-23 22:44:00,
2013-04-23 17:49:00,39.0,39.0,30.00,North,8,7.2,7.6,100,0.04,,OVC024,0.09,VWS V14.01,2013-04-23 22:49:00,
2013-04-23 17:54:00,39.2,39.2,30.00,NNE,13,6.1,8.1,100,0.04,,OVC024,0.09,VWS V14.01,2013-04-23 22:54:00,
2013-04-23 17:59:00,39.2,39.2,30.00,NNW,342,3.9,4.1,100,0.04,,OVC024,0.09,VWS V14.01,2013-04-23 22:59:00,
2013-04-23 18:04:00,39.0,39.0,30.00,North,353,6.7,7.0,100,0.00,,OVC018,0.09,VWS V14.01,2013-04-23 23:04:00,
2013-04-23 18:09:00,39.0,39.0,30.00,WSW,254,3.9,4.7,100,0.00,,OVC018,0.09,VWS V14.01,2013-04-23 23:09:00,
2013-04-23 18:14:00,39.2,39.2,30.00,NW,311,2.8,2.9,100,0.00,,OVC018,0.09,VWS V14.01,2013-04-23 23:14:00,
2013-04-23 18:19:00,39.0,39.0,30.00,NNE,25,3.3,4.1,100,0.00,,OVC018,0.09,VWS V14.01,2013-04-23 23:19:00,
2013-04-23 18:24:00,39.0,39.0,30.00,North,0,3.9,8.1,100,0.00,,OVC012,0.09,VWS V14.01,2013-04-23 23:24:00,
2013-04-23 18:29:00,39.0,39.0,30.00,NNW,343,0.0,5.2,100,0.00,,OVC012,0.09,VWS V14.01,2013-04-23 23:29:00,
2013-04-23 18:34:00,39.0,39.0,30.00,NW,305,4.4,5.8,100,0.00,,OVC012,0.09,VWS V14.01,2013-04-23 23:34:00,
2013-04-23 18:39:00,39.0,39.0,30.00,NNW,334,3.9,8.1,100,0.00,,OVC012,0.09,VWS V14.01,2013-04-23 23:39:00,
2013-04-23 18:44:00,38.8,38.8,30.03,NW,312,5.0,10.5,100,0.00,,OVC012,0.09,VWS V14.01,2013-04-23 23:44:00,
2013-04-23 18:50:00,38.7,38.7,30.03,NNW,335,6.1,11.3,100,0.00,,OVC012,0.09,VWS V14.01,2013-04-23 23:50:00,
2013-04-23 18:55:00,38.7,38.7,30.03,North,357,6.7,8.1,100,0.00,,OVC012,0.09,VWS V14.01,2013-04-23 23:55:00,
2013-04-23 19:00:00,38.7,38.7,30.03,NW,320,0.0,7.0,100,0.00,,OVC012,0.00,VWS V14.01,2013-04-24 00:00:00,
2013-04-23 19:05:00,38.7,38.7,30.03,NNE,23,3.3,7.6,100,0.00,,OVC014,0.09,VWS V14.01,2013-04-24 00:05:00,
2013-04-23 19:10:00,38.5,38.5,30.03,North,0,4.4,10.5,100,0.00,,OVC014,0.09,VWS V14.01,2013-04-24 00:10:00,
2013-04-23 19:15:00,38.5,38.5,30.03,North,10,4.4,5.2,100,0.00,,OVC014,0.09,VWS V14.01,2013-04-24 00:15:00,
2013-04-23 19:20:00,38.5,38.5,30.03,NW,325,3.3,10.5,100,0.04,,OVC025,0.13,VWS V14.01,2013-04-24 00:20:00,
2013-04-23 19:25:00,38.5,38.5,30.03,North,1,2.8,4.7,100,0.04,,OVC025,0.13,VWS V14.01,2013-04-24 00:25:00,
2013-04-23 19:30:00,38.3,38.3,30.03,NW,319,3.9,8.7,100,0.04,,OVC025,0.13,VWS V14.01,2013-04-24 00:30:00,
2013-04-23 19:35:00,38.1,38.1,30.03,NE,43,3.9,7.6,100,0.04,,OVC025,0.13,VWS V14.01,2013-04-24 00:35:00,
2013-04-23 19:40:00,38.1,38.1,30.03,North,2,3.3,9.9,100,0.04,,OVC027,0.13,VWS V14.01,2013-04-24 00:40:00,
2013-04-23 19:45:00,37.9,37.9,30.06,NNE,13,6.1,8.7,100,0.04,,OVC027,0.13,VWS V14.01,2013-04-24 00:45:00,
2013-04-23 19:50:00,37.8,37.8,30.06,NNW,339,2.8,7.6,100,0.04,,OVC027,0.13,VWS V14.01,2013-04-24 00:50:00,
2013-04-23 19:55:00,37.6,37.6,30.06,North,350,3.9,7.6,100,0.04,,OVC027,0.13,VWS V14.01,2013-04-24 00:55:00,
2013-04-23 20:00:00,37.6,37.6,30.06,North,11,6.7,8.1,100,0.04,,OVC014,0.13,VWS V14.01,2013-04-24 01:00:00,
2013-04-23 20:05:00,37.6,37.6,30.06,WNW,293,3.9,8.1,100,0.04,,OVC014,0.13,VWS V14.01,2013-04-24 01:05:00,
2013-04-23 20:10:00,37.6,37.6,30.06,North,2,3.9,7.0,100,0.04,,OVC014,0.13,VWS V14.01,2013-04-24 01:10:00,
2013-04-23 20:15:00,37.6,37.6,30.06,North,6,10.3,10.8,100,0.04,,OVC014,0.13,VWS V14.01,2013-04-24 01:15:00,
2013-04-23 20:20:00,37.4,37.4,30.06,NE,42,6.1,8.1,100,0.00,,OVC031,0.13,VWS V14.01,2013-04-24 01:20:00,
2013-04-23 20:25:00,37.2,37.2,30.06,North,357,7.2,9.9,100,0.00,,OVC031,0.13,VWS V14.01,2013-04-24 01:25:00,
2013-04-23 20:30:00,37.0,37.0,30.06,North,5,6.7,9.9,100,0.00,,OVC031,0.13,VWS V14.01,2013-04-24 01:30:00,
2013-04-23 20:35:00,37.0,37.0,30.06,NW,308,4.4,8.1,100,0.00,,OVC031,0.13,VWS V14.01,2013-04-24 01:35:00,
2013-04-23 20:41:00,37.0,37.0,30.06,North,349,6.7,8.1,100,0.00,,OVC014,0.13,VWS V14.01,2013-04-24 01:41:00,
2013-04-23 20:46:00,37.0,37.0,30.06,NNE,17,10.8,11.3,100,0.00,,OVC014,0.13,VWS V14.01,2013-04-24 01:46:00,
2013-04-23 20:51:00,36.9,36.9,30.06,NW,325,10.3,10.8,100,0.00,,OVC014,0.13,VWS V14.01,2013-04-24 01:51:00,
2013-04-23 20:56:00,36.9,36.9,30.06,NW,307,4.4,12.5,100,0.00,,OVC014,0.13,VWS V14.01,2013-04-24 01:56:00,
2013-04-23 21:01:00,36.7,36.7,30.06,WNW,286,3.3,7.0,100,0.00,,OVC008,0.13,VWS V14.01,2013-04-24 02:01:00,
2013-04-23 21:06:00,36.7,36.7,30.06,North,353,2.8,7.0,100,0.00,,OVC008,0.13,VWS V14.01,2013-04-24 02:06:00,
2013-04-23 21:11:00,36.7,36.7,30.09,NNW,335,10.3,10.8,100,0.00,,OVC008,0.13,VWS V14.01,2013-04-24 02:11:00,
2013-04-23 21:16:00,36.7,36.7,30.09,WNW,294,3.3,9.9,100,0.00,,OVC008,0.13,VWS V14.01,2013-04-24 02:16:00,
2013-04-23 21:21:00,36.5,36.5,30.09,NW,308,0.0,7.6,100,0.00,,OVC006,0.13,VWS V14.01,2013-04-24 02:21:00,
2013-04-23 21:27:00,36.5,36.5,30.09,NW,304,4.4,9.3,100,0.00,,OVC006,0.13,VWS V14.01,2013-04-24 02:27:00,
2013-04-23 21:32:00,36.5,36.5,30.09,NNW,346,5.0,7.6,100,0.00,,OVC006,0.13,VWS V14.01,2013-04-24 02:32:00,
2013-04-23 21:37:00,36.3,36.3,30.09,NW,317,10.3,10.8,100,0.00,,OVC006,0.13,VWS V14.01,2013-04-24 02:37:00,
2013-04-23 21:42:00,36.3,36.3,30.09,NNE,12,6.7,12.5,100,0.00,,OVC006,0.13,VWS V14.01,2013-04-24 02:42:00,
2013-04-23 21:47:00,36.3,36.3,30.09,WNW,300,9.4,10.8,100,0.00,,OVC006,0.13,VWS V14.01,2013-04-24 02:47:00,
2013-04-23 21:52:00,36.3,36.3,30.09,NNE,30,6.7,11.3,100,0.00,,OVC006,0.13,VWS V14.01,2013-04-24 02:52:00,
2013-04-23 21:59:00,36.3,36.3,30.09,North,357,9.4,10.5,100,0.00,,OVC008,0.13,VWS V14.01,2013-04-24 02:59:00,
2013-04-23 22:05:00,36.3,36.3,30.09,NE,35,2.8,5.2,100,0.00,,OVC008,0.13,VWS V14.01,2013-04-24 03:05:00,
2013-04-23 22:11:00,36.3,36.3,30.12,NW,314,2.8,5.2,100,0.00,,OVC008,0.13,VWS V14.01,2013-04-24 03:11:00,
2013-04-23 22:16:00,36.3,36.3,30.12,WNW,292,4.4,7.6,100,0.00,,OVC008,0.13,VWS V14.01,2013-04-24 03:16:00,
2013-04-23 22:21:00,36.3,36.3,30.12,NW,315,3.3,11.3,100,0.00,,OVC008,0.13,VWS V14.01,2013-04-24 03:21:00,
2013-04-23 22:26:00,36.3,36.3,30.12,North,5,4.4,10.5,100,0.00,,OVC008,0.13,VWS V14.01,2013-04-24 03:26:00,
2013-04-23 22:31:00,36.3,36.3,30.12,NNE,33,8.3,10.5,100,0.00,,OVC008,0.13,VWS V14.01,2013-04-24 03:31:00,
2013-04-23 22:37:00,36.3,36.3,30.12,NNE,33,4.4,7.0,100,0.00,,OVC008,0.13,VWS V14.01,2013-04-24 03:37:00,
2013-04-23 22:42:00,36.3,36.3,30.12,NW,311,3.9,10.5,100,0.00,,OVC008,0.13,VWS V14.01,2013-04-24 03:42:00,
2013-04-23 22:47:00,36.3,36.3,30.12,NNW,331,7.2,7.6,100,0.00,,OVC008,0.13,VWS V14.01,2013-04-24 03:47:00,
2013-04-23 22:52:00,36.3,36.3,30.12,NNW,330,4.4,5.8,100,0.00,,OVC008,0.13,VWS V14.01,2013-04-24 03:52:00,
2013-04-23 22:57:00,36.3,36.3,30.12,North,0,3.9,8.1,100,0.00,,OVC008,0.13,VWS V14.01,2013-04-24 03:57:00,
2013-04-23 23:01:00,36.3,36.3,30.12,NE,39,5.0,5.2,100,0.00,,OVC008,0.13,VWS V14.01,2013-04-24 04:01:00,
2013-04-23 23:02:00,36.3,36.3,30.12,North,357,4.4,5.2,100,0.00,,OVC008,0.13,VWS V14.01,2013-04-24 04:02:00,
2013-04-23 23:07:00,36.3,36.3,30.12,West,279,6.7,11.3,100,0.00,,OVC008,0.13,VWS V14.01,2013-04-24 04:07:00,
2013-04-23 23:12:00,36.3,36.3,30.12,North,0,4.4,11.3,100,0.00,,OVC008,0.13,VWS V14.01,2013-04-24 04:12:00,
2013-04-23 23:17:00,36.3,36.3,30.12,NNE,12,3.3,4.7,100,0.00,,OVC008,0.13,VWS V14.01,2013-04-24 04:17:00,
2013-04-23 23:22:00,36.3,36.3,30.12,NW,322,3.9,6.4,100,0.00,,OVC008,0.13,VWS V14.01,2013-04-24 04:22:00,
2013-04-23 23:27:00,36.3,36.3,30.12,North,5,6.7,10.8,100,0.00,,OVC008,0.13,VWS V14.01,2013-04-24 04:27:00,
2013-04-23 23:32:00,36.3,36.3,30.12,NNE,17,4.4,10.5,100,0.00,,OVC008,0.13,VWS V14.01,2013-04-24 04:32:00,
2013-04-23 23:37:00,36.1,36.1,30.12,NW,319,0.0,8.1,100,0.00,,OVC008,0.13,VWS V14.01,2013-04-24 04:37:00,
2013-04-23 23:42:00,36.1,36.1,30.12,North,1,10.0,10.5,100,0.00,,OVC010,0.13,VWS V14.01,2013-04-24 04:42:00,
2013-04-23 23:47:00,36.1,36.1,30.12,North,357,3.9,10.8,100,0.00,,OVC010,0.13,VWS V14.01,2013-04-24 04:47:00,
2013-04-23 23:52:00,36.1,36.1,30.12,NNE,27,6.7,10.8,100,0.00,,OVC010,0.13,VWS V14.01,2013-04-24 04:52:00,
2013-04-23 23:57:00,36.1,36.1,30.12,North,5,7.2,10.5,100,0.00,,OVC010,0.13,VWS V14.01,2013-04-24 04:57:00,